Wind_Speed
102 104 107 110 113 116 120 124 127 130 131 133 134 135 137 139 140 141 140 140 139 138 137 136 135 134 134 133 132 132 132 131 131 130 129 128 128 128 128 129 129 129 129 129 129 128 128 127 127 127 127 126 125 124 124 123 122 121 121 120 119 119 118 116 113 108 107 109 109 109 110 110 109 108 107 107 107 106 106 105 106 106 106 105 104
103 104 105 107 110 113 116 119 122 126 129 133 135 137 138 139 141 142 144 145 145 144 144 143 142 141 141 140 139 139 138 138 138 138 137 136 135 134 133 132 132 131 131 131 131 132 131 131 131 131 131 129 128 128 128 127 127 125 125 124 123 123 122 121 118 114 112 112 113 113 113 114 113 112 112 112 112 112 111 109 109 109 109 109 108
106 106 106 107 108 111 113 116 118 121 123 127 131 135 138 140 142 143 144 146 147 148 148 149 149 149 148 148 147 146 146 145 144 144 143 143 143 142 142 141 139 138 137 136 135 135 135 134 134 134 134 133 132 132 132 131 131 130 129 128 127 126 126 125 123 119 116 116 116 116 116 116 116 115 116 116 116 115 114 113 112 113 113 112 111
108 108 108 109 109 110 111 113 116 118 120 122 124 127 131 135 139 142 145 147 149 150 150 151 152 152 153 153 153 153 153 152 151 151 150 149 149 148 148 148 147 146 145 143 142 141 140 139 138 138 137 136 135 135 135 136 135 135 134 133 132 130 130 129 127 124 121 120 119 119 119 119 118 118 118 118 117 117 116 115 115 114 114 114 114
109 109 110 110 110 111 111 113 114 116 118 119 121 123 124 127 130 134 138 142 146 149 152 153 154 154 155 155 156 157 157 157 157 157 157 156 156 155 154 153 152 152 151 150 149 148 147 145 144 143 143 141 139 139 139 140 139 139 138 138 137 136 135 134 132 129 127 124 123 123 123 122 122 122 122 121 120 119 118 117 117 116 116 116 116
108 108 109 109 110 111 111 112 113 115 116 118 119 121 122 123 124 126 128 131 135 140 144 148 151 154 156 157 158 158 159 159 160 160 160 161 161 160 160 159 158 158 157 156 155 154 153 152 151 150 149 148 146 145 144 144 144 143 142 142 142 142 141 139 138 136 133 130 129 128 127 127 127 127 127 127 126 124 123 122 121 120 120 119 119
105 105 106 107 108 109 110 111 112 114 115 116 118 119 120 121 122 123 124 125 127 129 132 136 140 144 147 151 154 156 158 160 161 162 162 163 163 163 162 162 162 161 161 161 160 160 159 158 157 156 155 154 153 151 151 150 149 148 147 147 147 146 146 145 144 142 140 137 135 134 134 133 132 132 132 133 132 131 130 128 127 126 125 125 125
102 102 103 104 105 106 107 109 110 112 113 115 116 117 118 119 120 121 122 123 124 125 126 128 130 132 135 138 142 145 149 152 156 159 161 163 164 165 164 164 163 163 162 162 162 162 162 162 162 161 161 160 159 158 157 156 155 154 153 152 152 151 150 149 149 148 146 143 142 140 140 139 138 137 137 138 138 137 136 136 135 134 133 133 133
99 99 100 101 102 103 104 105 107 108 110 111 113 114 116 117 119 120 121 122 123 123 124 125 126 127 129 130 132 134 136 139 142 146 151 155 158 161 162 163 164 163 163 163 162 163 163 163 163 164 164 164 164 163 163 162 161 160 159 158 157 157 155 154 153 153 151 150 148 146 145 144 143 142 142 142 142 142 143 142 141 140 140 140 140
96 97 97 98 98 99 100 101 103 104 106 107 109 110 112 113 115 116 118 119 120 121 122 123 124 125 125 126 127 128 129 131 133 135 138 141 143 146 149 152 154 156 158 159 161 162 163 163 164 164 165 165 165 166 166 166 166 165 164 164 163 162 161 160 158 157 156 155 153 152 151 149 147 146 146 146 147 147 147 147 146 146 146 146 145
94 94 94 94 95 95 96 98 99 101 102 104 105 106 107 109 110 112 113 115 116 117 118 119 121 122 122 123 123 124 126 127 129 130 131 132 133 134 135 137 139 142 144 147 150 153 156 159 161 162 163 164 165 166 166 167 167 168 167 167 167 167 166 164 163 162 161 160 158 157 156 154 152 151 151 151 151 151 151 151 151 151 151 151 149
92 92 92 92 93 93 94 95 96 97 99 100 101 102 104 105 106 108 109 110 111 112 113 114 115 117 118 118 118 120 122 124 125 126 126 127 128 128 128 128 129 131 132 134 136 139 142 146 149 152 154 157 159 161 163 164 166 167 168 168 168 168 167 166 165 165 164 163 162 160 159 157 157 156 155 155 155 155 155 155 155 155 155 154 152
92 92 92 92 92 92 93 93 94 95 96 97 98 99 100 101 103 104 105 107 107 108 109 111 112 113 113 114 114 115 117 119 121 121 121 122 124 124 123 122 122 123 125 127 128 130 131 133 136 138 141 144 146 149 152 155 158 161 163 164 164 164 164 164 164 164 164 164 163 161 160 159 159 159 159 159 159 159 158 158 158 158 157 156 153
93 93 93 93 93 93 93 93 93 93 94 94 95 96 97 98 99 100 101 101 103 104 105 107 108 109 110 111 111 113 115 116 117 117 118 119 119 120 119 117 117 117 119 120 122 124 125 127 128 130 132 134 136 138 140 142 144 147 149 151 152 154 155 157 158 159 161 162 161 161 161 160 160 160 160 161 162 161 161 160 160 160 157 155 151
92 92 92 92 92 92 92 92 92 93 93 93 93 94 94 95 95 96 96 97 98 99 100 101 102 103 105 107 108 109 111 113 114 114 115 116 117 116 115 114 114 114 114 116 118 119 120 122 123 124 126 128 131 133 135 135 136 136 136 137 137 138 140 142 145 148 150 153 154 156 157 159 160 161 160 160 160 159 158 157 156 153 150 146 141
91 91 91 91 91 91 92 92 92 92 92 92 93 93 93 93 93 93 93 94 94 95 96 96 97 98 100 101 102 102 104 106 108 109 111 112 113 113 112 112 112 112 113 114 115 115 116 117 118 118 119 121 124 127 130 131 131 131 130 129 128 128 128 128 130 133 137 139 141 142 145 148 151 152 151 150 148 147 146 145 142 139 136 132 128
89 90 90 90 90 91 91 91 91 91 92 92 92 92 93 93 92 92 91 92 93 93 93 94 95 96 97 98 98 97 98 101 102 103 104 106 107 107 108 109 110 110 111 112 112 113 113 114 114 114 114 115 118 121 124 126 126 126 125 124 124 124 123 122 123 125 127 130 131 131 132 134 137 138 138 137 135 133 132 131 129 128 127 124 121
89 88 88 89 89 89 90 90 90 90 91 91 91 92 92 92 91 91 91 91 91 92 92 93 94 95 95 95 95 95 96 98 99 99 100 101 101 101 102 103 104 105 106 108 109 110 110 111 112 111 111 112 114 117 119 120 121 120 120 119 119 119 118 118 119 121 123 125 127 127 126 127 129 130 131 131 129 128 126 124 123 123 123 120 117
88 88 87 88 88 88 88 88 89 89 89 90 90 91 91 91 90 90 90 90 90 91 92 92 93 93 94 93 94 94 95 96 97 98 98 98 98 98 98 98 99 100 101 102 103 105 105 107 108 108 108 109 110 112 114 115 116 115 115 115 115 113 112 114 117 119 120 120 121 121 122 122 124 125 126 126 125 123 120 118 119 120 118 115 114
88 88 87 87 87 87 87 87 87 88 88 89 89 90 90 90 90 90 90 90 89 90 92 92 91 91 92 92 93 94 94 95 95 96 97 97 96 96 95 95 96 96 96 97 98 100 101 102 103 104 104 105 106 108 109 111 111 110 110 110 109 108 109 112 116 117 117 116 114 114 116 117 119 120 120 120 119 117 114 113 114 115 113 111 112
88 87 87 86 86 86 86 86 86 86 87 87 88 88 88 88 88 89 89 89 90 90 91 90 89 89 90 91 92 93 94 93 94 95 96 96 95 94 94 93 93 93 94 95 95 96 97 98 99 100 100 101 102 103 104 106 107 106 106 105 105 105 107 109 111 113 114 113 111 109 110 112 114 115 115 114 114 113 112 110 109 111 111 110 110
86 86 85 85 85 84 84 84 84 85 85 85 85 86 86 86 86 86 87 87 89 89 89 88 87 87 89 91 92 92 93 92 92 93 94 94 94 93 92 92 92 91 91 92 93 94 95 96 96 97 98 98 99 100 100 101 102 102 101 102 103 104 105 106 106 108 109 108 108 106 106 106 109 111 112 111 111 111 111 110 108 108 108 108 109
85 85 85 84 84 83 83 83 84 83 83 83 83 84 84 84 83 84 85 86 86 86 85 85 85 85 87 89 90 91 91 91 91 92 92 92 92 92 91 91 91 90 90 90 91 92 93 93 94 95 96 96 97 97 98 98 99 99 98 99 100 101 102 102 102 103 103 104 104 104 103 102 103 106 108 109 109 110 111 111 109 108 107 107 108
85 84 84 83 83 83 83 83 83 83 83 82 82 83 83 82 82 83 84 84 83 82 83 83 82 83 85 87 89 90 89 89 89 89 89 89 90 90 90 89 89 89 89 89 90 91 91 92 92 93 94 95 96 96 96 97 97 96 96 97 97 98 98 99 99 99 99 100 100 100 100 100 100 101 103 105 108 109 111 110 109 107 105 105 106
84 84 83 82 82 82 82 82 82 82 82 81 81 81 81 81 81 83 83 82 81 80 81 81 81 81 83 85 87 88 88 88 88 87 86 86 87 87 87 87 87 87 87 87 88 89 89 90 91 92 93 94 94 95 96 96 95 94 94 94 95 95 95 96 97 97 97 96 96 96 96 97 98 98 99 102 105 108 108 107 106 105 104 104 105
83 83 82 81 80 80 79 80 79 79 79 79 78 78 78 78 79 80 80 79 78 78 78 78 79 80 81 84 86 87 87 88 87 86 85 84 85 85 85 85 85 85 84 84 85 86 86 87 88 89 90 92 93 94 94 94 93 92 92 92 93 93 93 94 95 96 96 95 94 93 92 93 95 97 98 99 101 102 103 104 103 103 104 104 104
81 81 80 79 78 78 78 77 77 77 76 76 75 75 75 75 76 76 76 75 75 75 75 74 75 76 78 81 82 83 85 85 84 83 83 82 83 83 83 83 83 82 82 82 82 83 84 85 86 86 87 89 90 92 92 91 91 90 90 91 91 91 92 92 93 93 93 93 93 92 90 90 91 93 94 95 95 97 99 101 102 102 102 103 104
79 79 78 78 77 77 77 76 76 75 75 74 74 74 73 74 73 73 72 71 71 71 71 71 71 73 74 77 78 79 81 81 80 79 79 79 79 79 79 79 79 79 79 79 79 79 81 82 82 82 83 85 87 89 90 89 88 88 88 88 88 88 89 90 90 90 91 92 92 91 89 89 89 90 90 92 93 94 96 98 100 101 101 103 103
77 77 77 76 75 75 75 75 74 74 74 73 73 73 73 73 72 71 71 70 69 68 67 68 69 70 72 73 75 76 77 77 77 75 75 75 75 75 75 75 74 74 75 75 75 76 77 78 78 78 79 80 81 84 86 86 85 84 85 85 85 85 85 85 86 86 88 90 91 90 88 88 89 89 89 89 90 91 93 95 97 99 101 102 102
76 76 76 75 75 74 74 74 73 73 72 72 72 72 73 73 71 70 70 70 68 67 65 65 66 68 70 71 73 74 75 75 74 74 73 73 73 72 72 71 71 71 71 71 72 73 74 74 75 75 75 76 76 78 81 83 83 81 81 82 83 82 81 80 81 82 84 87 88 88 88 87 87 88 88 88 88 90 92 93 94 97 99 100 100
75 75 75 75 74 74 73 73 72 72 71 71 70 70 72 73 72 70 68 67 68 67 65 64 65 67 68 70 71 73 73 73 72 72 72 72 72 71 70 70 69 68 68 67 68 70 71 71 71 72 72 72 72 73 75 78 80 80 78 79 80 80 79 77 77 79 81 82 84 85 86 86 86 86 87 88 88 90 91 92 93 94 95 96 98
73 74 74 74 74 73 73 72 71 70 70 70 70 69 69 70 72 72 69 67 66 66 65 64 65 66 67 68 69 71 72 71 71 70 70 70 70 70 70 69 68 67 66 65 65 67 68 68 68 68 69 68 69 69 71 73 76 77 76 76 77 78 77 76 76 76 77 78 80 81 82 83 83 84 86 86 87 89 90 91 92 92 92 92 94
72 72 72 72 72 72 72 71 70 69 69 69 69 69 68 68 69 71 71 69 67 65 64 64 64 66 67 67 67 68 68 69 69 68 68 68 68 67 68 68 68 66 65 64 64 65 65 65 65 65 66 66 65 66 67 69 71 72 73 74 75 75 75 75 76 75 75 76 77 78 78 79 80 81 82 84 86 88 89 91 92 92 91 90 91
71 71 70 70 70 70 70 69 68 67 67 67 67 67 67 66 66 68 69 70 69 67 64 63 62 63 65 67 67 66 65 65 65 65 65 65 65 65 65 65 65 65 64 63 63 63 63 63 63 63 63 63 63 63 65 66 67 68 69 71 72 72 73 74 74 74 73 74 74 74 75 76 77 77 78 80 84 87 88 89 91 91 91 90 90
70 70 69 69 69 68 68 66 65 65 66 66 66 66 65 65 65 66 66 67 67 68 66 65 63 62 62 63 64 64 63 62 62 61 61 61 62 63 63 63 62 63 63 62 61 61 61 61 62 62 62 62 61 61 62 63 64 64 66 67 69 69 70 71 72 72 72 71 71 72 73 74 74 75 75 77 80 84 86 88 90 91 91 90 89
69 69 68 67 67 66 65 64 63 63 64 65 65 64 64 64 64 64 64 63 64 64 65 65 64 63 62 60 60 60 60 59 58 58 58 58 58 60 61 61 60 60 60 60 60 59 59 58 59 60 61 61 59 59 60 61 61 61 62 64 65 66 68 69 69 70 70 70 70 70 71 71 72 73 74 75 78 80 83 86 88 90 90 90 88
69 68 68 67 66 65 63 62 60 61 63 63 63 63 63 62 62 62 61 61 61 61 61 61 62 63 63 61 59 57 56 56 55 55 55 56 57 57 57 58 59 58 57 57 58 58 57 56 56 57 58 59 58 57 57 59 59 59 59 61 62 63 65 66 66 67 68 68 69 69 69 69 69 70 71 73 75 77 80 83 85 87 88 87 86
69 68 68 67 66 65 63 61 60 61 62 62 62 62 62 61 60 60 59 59 59 59 59 58 58 59 60 60 59 57 55 53 53 54 54 54 55 55 55 55 56 57 56 55 56 57 56 55 55 54 54 56 56 56 55 56 57 57 57 58 59 61 62 63 64 65 65 66 67 67 67 67 67 68 69 71 73 75 77 79 82 84 84 84 83
68 68 67 66 65 64 62 60 61 62 61 60 60 61 60 60 59 58 58 58 57 57 57 57 56 56 56 57 59 58 57 55 53 53 54 54 53 52 52 51 52 54 54 53 54 56 55 54 54 54 53 53 54 54 54 54 55 55 55 56 57 58 60 61 62 63 63 64 65 65 66 66 67 67 68 69 70 72 74 76 78 80 81 81 81
66 66 66 65 64 63 61 60 61 62 61 59 59 59 59 59 58 57 57 57 57 56 56 56 56 55 54 55 56 57 58 57 55 54 54 54 53 52 50 49 49 50 50 50 51 54 55 54 53 53 52 52 52 52 52 53 53 53 53 54 55 56 58 59 60 61 62 63 63 64 64 65 66 67 67 67 68 70 71 73 75 76 77 78 78
65 65 65 64 63 62 60 60 61 62 61 59 58 58 57 57 57 57 57 57 56 56 55 55 55 55 54 53 53 54 55 56 56 55 54 54 53 52 51 49 47 48 48 47 48 51 52 52 51 51 51 51 51 51 51 51 52 52 52 52 53 54 56 57 59 60 61 61 62 63 63 64 65 66 66 65 66 67 69 70 72 73 74 75 75
64 64 63 62 61 60 60 60 60 61 60 59 58 57 56 56 56 56 56 56 56 56 55 54 54 54 53 52 52 52 52 53 54 54 54 54 53 52 50 49 48 48 47 46 46 48 50 50 49 49 50 50 50 50 50 50 50 51 51 52 52 53 54 56 57 58 59 60 61 62 62 63 64 64 64 64 64 65 66 68 69 70 71 71 72
62 62 62 61 60 59 59 60 59 59 58 58 57 57 56 55 55 55 55 55 55 55 54 54 53 52 52 51 50 50 50 51 52 53 52 52 52 52 50 48 47 48 48 46 45 46 48 48 47 47 47 48 48 48 48 49 49 50 51 51 51 52 53 54 56 57 58 59 60 60 60 61 62 62 62 62 62 63 64 65 66 67 68 69 70
60 60 59 59 58 58 58 58 58 57 57 57 56 56 55 54 54 53 53 53 53 53 53 52 52 51 50 49 49 48 49 50 51 52 51 50 50 51 50 48 46 46 47 46 45 45 46 47 46 45 45 46 46 47 47 47 48 49 50 50 50 51 51 53 54 55 56 57 58 58 58 59 60 60 61 61 61 61 62 63 64 65 65 66 68
58 57 57 57 57 57 57 56 56 55 55 55 55 54 53 53 52 52 52 52 51 51 50 50 50 50 49 48 47 47 48 49 50 50 50 49 48 48 48 47 45 44 45 45 44 43 44 45 45 44 44 44 45 45 46 46 47 48 49 50 50 50 50 51 52 53 54 54 55 56 56 57 57 58 59 60 60 60 60 61 62 62 63 64 66
56 56 56 56 55 55 55 54 53 53 53 53 52 52 51 51 51 51 50 50 49 49 48 48 48 48 47 47 47 47 47 48 48 49 49 49 47 47 47 46 44 43 43 43 42 41 42 43 43 43 42 42 43 43 44 45 46 46 48 48 49 49 49 49 50 51 52 52 52 53 54 54 55 56 57 58 58 58 59 59 59 60 61 62 64
55 55 55 54 54 53 53 52 51 51 51 50 50 49 49 49 49 49 48 48 47 47 47 46 46 46 46 46 46 46 46 46 47 48 49 48 47 46 45 44 43 42 42 42 41 40 40 41 41 41 41 41 41 41 42 43 44 45 46 47 48 48 48 48 49 49 50 50 51 51 52 53 54 54 55 56 56 56 57 57 58 58 59 61 63
54 54 53 52 52 51 51 50 50 49 48 48 48 47 47 47 47 47 47 47 46 45 45 45 44 45 45 45 44 44 44 44 45 47 48 47 46 45 44 43 42 40 40 41 40 39 38 39 39 39 39 40 40 40 41 42 42 43 44 45 46 47 47 47 47 48 48 49 49 49 50 51 52 53 54 54 55 55 56 56 57 57 58 60 62
53 53 52 51 50 49 49 48 48 47 46 46 46 46 46 46 46 45 45 45 45 44 44 43 43 44 44 43 43 42 42 43 43 45 46 47 45 44 43 43 41 39 39 40 39 38 37 37 38 38 38 38 39 39 39 40 41 42 42 43 44 45 46 46 46 46 47 47 47 48 48 49 50 52 53 53 54 55 55 56 56 57 58 59 61
52 51 50 49 49 48 47 47 46 45 45 44 44 45 45 44 45 44 44 44 43 43 43 43 43 43 42 41 41 40 40 41 42 43 45 45 45 43 42 41 41 39 38 38 39 38 36 36 36 36 36 37 37 38 38 38 39 40 40 42 43 44 44 45 45 45 46 46 46 46 47 48 49 50 51 52 53 54 55 55 56 56 57 58 60
50 49 49 48 47 46 46 45 44 44 43 43 43 43 44 44 44 43 43 42 42 42 42 42 42 42 41 40 40 39 39 39 41 42 43 44 44 43 41 40 39 38 37 37 37 37 35 34 35 35 35 35 35 36 36 37 37 38 38 40 41 42 43 43 44 44 45 45 45 45 45 46 47 48 49 51 52 53 54 54 55 55 56 57 58
Wind_Direction
270 268 267 265 264 262 261 259 258 257 256 256 255 255 254 254 254 254 253 253 253 253 253 253 253 253 253 253 253 253 253 253 253 253 253 253 253 253 253 253 253 253 253 253 253 253 253 253 254 255 255 256 256 256 256 257 257 256 256 256 256 256 257 257 256 255 254 254 255 255 256 256 256 257 257 257 258 258 259 259 261 262 262 263 263
271 269 267 266 265 265 264 262 261 259 258 257 256 256 255 255 254 254 254 254 254 254 254 253 253 253 253 253 254 254 254 254 254 253 253 253 253 253 253 254 254 254 254 253 253 253 253 253 254 254 255 256 256 256 256 257 257 257 257 257 257 257 257 258 257 257 256 255 255 256 256 256 256 256 257 257 257 257 258 258 260 261 262 262 263
273 271 269 268 266 266 265 264 264 263 261 260 259 258 257 256 255 255 255 255 255 255 254 254 254 254 254 254 254 254 254 254 254 254 254 254 254 254 254 254 254 254 255 255 255 255 255 255 255 255 256 256 256 257 257 257 258 258 258 258 258 258 258 259 259 258 257 257 257 257 257 257 258 257 257 257 257 258 258 258 259 259 260 261 262
274 273 271 270 268 267 266 265 265 264 264 263 262 261 259 258 257 256 256 256 256 256 255 255 255 255 255 255 255 255 255 255 255 255 255 255 255 255 255 255 255 255 255 255 255 255 255 255 256 256 256 257 257 257 257 258 258 259 259 259 259 259 259 260 260 260 259 258 258 258 258 259 259 259 260 259 260 260 260 260 260 260 260 261 261
274 273 272 271 270 269 268 267 266 265 265 265 264 264 263 261 260 259 258 257 257 256 256 256 256 256 256 256 256 256 256 256 256 256 256 256 256 256 256 256 256 256 256 256 256 256 256 256 256 256 256 257 257 257 257 258 259 259 260 260 261 261 261 261 261 261 261 260 260 259 259 259 259 260 261 261 261 261 262 262 262 262 263 263 263
274 273 273 272 271 270 269 268 267 267 266 266 265 265 265 264 263 263 262 261 260 259 258 257 257 257 257 257 257 257 257 257 257 257 257 257 257 257 257 256 256 256 256 256 256 256 256 256 256 256 257 257 257 257 257 257 258 259 259 260 261 261 262 262 262 262 262 262 262 261 261 260 260 260 260 260 261 261 262 263 263 264 264 264 264
275 274 273 272 272 271 270 270 269 268 268 267 266 266 266 265 265 265 264 263 263 262 261 260 259 259 258 258 258 257 257 257 257 258 258 258 258 258 258 257 257 257 257 257 257 257 257 257 257 257 257 257 257 257 257 257 258 258 258 259 259 260 261 261 262 262 263 263 263 263 262 262 261 261 261 261 261 262 263 263 263 263 263 263 262
276 275 274 273 272 271 270 270 269 269 268 268 267 267 267 267 266 266 265 265 264 264 263 262 262 261 261 260 259 259 258 258 258 258 258 258 258 258 258 258 258 258 258 258 258 258 258 258 258 258 258 258 258 258 258 258 258 258 258 258 259 259 260 260 261 261 262 262 262 262 263 263 262 262 262 262 263 263 264 263 263 263 263 262 262
277 276 275 274 273 272 271 271 270 269 269 268 268 267 267 267 267 266 266 266 265 265 265 264 264 263 263 262 262 261 260 260 259 259 258 258 258 259 259 259 259 259 259 259 259 259 259 259 259 259 259 259 259 259 259 259 259 258 258 258 259 259 259 260 260 261 261 262 262 262 262 262 262 262 262 263 263 263 263 264 264 264 264 264 264
277 276 275 275 274 273 273 272 271 271 270 269 269 268 267 267 267 266 266 266 266 266 266 265 265 265 264 264 263 263 263 262 262 261 260 260 260 260 260 260 260 260 260 260 260 260 260 259 259 259 259 259 259 259 259 259 259 259 259 259 259 259 259 260 260 260 261 261 261 262 262 262 262 262 262 262 263 263 263 264 264 264 265 265 266
278 277 277 276 275 274 273 273 272 271 270 270 269 269 269 268 268 267 267 266 266 266 266 266 266 265 265 265 265 264 264 264 263 263 262 262 261 261 260 260 260 260 260 260 260 260 260 260 260 260 259 259 259 259 259 259 259 259 259 259 259 259 260 260 260 260 260 261 261 261 262 262 262 262 262 262 262 263 263 263 263 264 264 265 266
280 279 278 277 276 274 273 272 271 270 270 269 269 269 268 268 268 268 268 267 267 267 267 266 266 266 266 266 265 265 265 264 264 264 263 263 262 262 261 261 261 261 261 261 260 260 260 260 260 260 260 260 260 260 259 259 259 259 259 259 259 259 260 260 260 260 261 261 261 261 261 261 262 262 262 262 262 262 262 263 263 263 264 265 265
283 282 281 279 278 277 275 274 273 272 271 270 269 269 268 268 267 267 267 267 267 267 267 267 267 267 267 266 266 266 265 265 265 265 265 264 264 264 263 262 262 261 261 261 261 261 260 260 260 260 260 260 260 260 260 259 259 259 259 259 259 259 260 260 260 260 261 261 261 262 262 261 261 262 262 262 262 262 262 263 263 263 264 264 265
284 283 282 281 280 279 278 277 276 275 274 273 272 271 270 269 268 267 267 267 266 266 266 266 266 266 266 266 266 266 266 266 266 266 266 266 265 265 265 264 264 263 262 262 262 261 261 260 260 260 260 260 260 260 260 260 259 259 259 259 259 259 260 260 260 260 260 261 261 261 262 262 262 261 261 262 262 262 262 263 263 263 263 263 263
283 283 282 281 281 280 279 278 277 277 276 275 274 273 272 271 271 270 269 269 268 267 267 267 266 266 266 265 265 265 265 265 265 266 266 266 266 266 266 266 265 265 264 263 262 261 261 260 260 259 259 259 259 259 260 259 259 259 259 259 259 259 259 259 260 260 260 260 260 260 260 261 261 262 262 262 262 262 262 262 262 262 262 262 262
283 283 282 282 281 280 280 279 279 278 277 277 276 275 274 273 273 272 272 271 270 270 269 269 268 267 267 266 265 265 265 265 265 264 264 265 265 266 266 266 266 265 265 264 263 262 262 261 261 260 259 259 259 259 259 259 259 259 259 259 259 259 258 258 258 259 259 259 259 258 259 259 260 260 260 260 260 260 260 260 260 260 260 260 259
283 283 282 282 281 281 280 280 279 279 278 277 277 276 276 275 274 274 273 273 272 272 271 270 270 269 268 268 268 267 267 267 266 265 264 264 264 264 264 264 264 264 264 264 264 264 264 263 263 262 261 260 260 260 260 260 260 260 260 260 260 259 259 258 258 257 257 257 257 257 257 256 257 257 258 258 258 258 258 258 258 258 258 258 257
284 283 283 282 282 281 281 280 280 279 279 278 278 277 277 276 275 275 274 273 273 272 272 271 271 270 270 270 270 269 269 268 268 267 266 266 265 264 264 264 264 264 264 264 264 264 264 264 264 263 262 261 261 260 260 260 260 261 261 261 260 260 260 259 259 257 257 256 256 256 256 255 255 256 256 256 256 256 256 256 256 256 256 256 256
285 284 283 283 282 281 281 280 280 280 279 279 278 278 277 277 276 276 275 274 274 273 272 272 271 271 271 271 270 270 269 269 269 268 268 267 267 266 266 265 265 264 264 264 264 264 264 264 264 264 263 262 262 261 261 261 261 261 261 261 260 260 260 260 259 258 256 255 255 255 255 255 255 255 255 255 255 255 255 254 254 254 254 254 254
286 285 284 283 282 282 281 281 280 279 279 279 278 278 278 277 277 276 276 275 275 274 273 273 272 272 272 272 271 270 269 269 269 269 269 268 268 267 267 267 266 266 265 265 265 265 265 264 264 264 264 263 262 262 262 262 262 262 261 261 261 260 259 258 258 257 257 256 255 254 254 255 255 255 255 255 255 255 255 254 253 253 253 252 252
285 285 284 283 282 282 281 280 280 279 278 278 278 278 277 277 277 277 276 276 275 275 274 274 274 274 273 273 272 271 270 270 269 269 269 269 269 268 268 267 267 267 266 266 266 266 265 265 265 264 264 264 263 263 262 262 263 263 262 262 261 260 259 257 257 257 257 257 256 254 253 253 254 255 255 255 255 255 255 254 252 252 252 251 251
285 284 284 283 282 282 281 280 280 279 278 278 278 277 277 277 277 276 276 276 275 275 275 275 275 275 275 274 273 272 272 271 270 270 270 270 269 269 269 268 268 267 267 266 266 266 265 265 265 265 265 264 264 263 263 262 262 262 262 262 261 260 259 258 258 257 257 257 257 256 254 252 253 254 254 254 254 254 254 254 252 251 250 250 250
285 285 284 284 283 283 282 281 280 280 279 279 278 278 278 277 277 277 276 275 275 276 276 276 276 276 275 275 274 273 273 272 271 271 271 271 270 270 270 269 269 268 268 267 267 266 266 265 265 265 265 264 264 263 263 262 262 262 261 261 260 260 260 259 259 258 257 257 257 256 255 254 252 252 253 253 253 253 252 252 251 250 249 249 249
285 285 285 284 284 283 282 282 281 281 280 280 279 279 278 278 278 277 276 276 276 277 277 277 277 276 276 275 275 274 274 273 272 272 271 271 271 271 270 270 270 269 269 268 268 267 267 266 266 266 265 264 264 263 263 262 261 261 261 260 260 260 260 260 260 259 258 257 256 256 256 255 253 252 251 251 251 251 251 250 250 250 249 248 248
286 285 285 284 284 283 283 282 282 281 281 280 280 279 279 278 277 276 276 276 277 276 276 276 276 275 275 275 275 275 274 274 273 273 272 272 272 272 271 271 271 270 270 269 269 268 268 267 267 266 266 265 265 264 263 262 262 261 261 260 260 260 259 259 259 259 258 257 256 255 255 254 254 252 251 249 249 249 249 249 249 249 248 248 247
286 286 285 285 284 284 283 283 282 282 281 281 280 280 279 278 277 276 276 277 276 276 275 275 274 274 273 273 273 274 274 274 274 274 273 273 273 273 272 272 272 271 271 270 270 269 269 268 268 267 267 266 266 265 264 263 263 262 261 260 259 259 258 258 258 258 258 257 257 255 254 253 253 252 251 250 249 248 249 249 249 248 247 247 246
287 286 286 286 285 285 284 284 283 283 282 282 281 281 280 279 278 277 277 277 276 275 275 274 274 273 273 273 273 273 273 273 273 274 274 273 273 273 273 272 272 272 271 270 270 269 269 268 268 267 267 267 267 266 265 264 264 262 261 260 259 258 258 257 257 257 258 258 257 256 255 254 252 252 252 251 250 249 248 248 248 247 247 246 245
287 286 286 286 286 286 285 285 284 284 284 283 283 282 281 280 280 279 279 278 277 276 276 275 275 274 274 274 274 274 274 274 274 274 274 274 273 273 273 272 272 272 271 270 270 269 268 267 267 267 266 266 266 267 266 265 264 264 263 261 260 258 258 257 257 257 257 257 257 256 255 254 253 252 251 251 250 249 248 247 247 247 246 245 244
287 287 287 287 286 286 285 285 285 284 284 284 284 283 282 282 281 281 280 279 278 277 277 277 277 276 275 275 275 275 275 275 275 275 275 274 274 274 273 273 272 272 271 271 270 269 268 267 267 266 265 265 265 265 266 266 265 264 264 263 261 260 258 257 257 256 255 255 255 255 254 253 252 252 251 250 249 248 247 247 246 245 245 245 244
288 288 287 287 286 286 285 285 285 284 284 284 284 283 283 282 282 281 281 280 280 279 278 277 277 277 276 276 276 276 276 277 277 277 277 277 276 275 275 274 273 272 271 271 271 270 269 268 268 266 265 264 263 263 264 265 265 264 263 263 263 261 260 258 257 256 254 254 254 254 253 252 251 251 250 249 248 248 247 246 245 244 244 244 244
288 287 287 286 286 285 285 285 285 285 284 284 284 283 283 283 282 281 280 280 280 280 279 278 277 276 276 276 277 277 277 278 278 278 279 279 278 278 277 276 275 273 272 271 271 270 269 268 268 267 266 265 263 262 262 262 263 264 263 262 262 262 261 259 257 256 255 254 254 253 253 252 250 250 249 248 248 247 247 247 246 245 244 244 244
287 286 286 286 286 286 285 285 285 285 285 284 284 283 283 283 283 283 281 280 279 279 279 279 278 277 276 276 276 277 277 278 278 278 279 279 279 279 279 278 277 276 274 273 272 271 270 269 269 268 267 265 264 263 261 261 261 262 262 261 261 261 261 260 258 256 255 254 254 253 252 251 250 249 248 247 247 246 246 247 247 246 245 244 244
287 286 286 286 286 286 285 285 285 285 285 284 283 283 282 282 282 282 282 281 280 279 278 278 278 278 277 276 276 276 276 277 278 278 278 278 278 278 278 278 277 276 275 274 273 272 271 270 270 269 268 266 265 263 262 261 261 261 261 261 260 260 260 259 258 257 255 254 253 253 252 251 250 249 247 246 245 245 245 245 246 246 245 245 244
287 286 286 286 286 285 285 285 285 285 284 283 282 282 282 281 281 281 281 282 282 281 279 277 276 276 276 277 277 276 276 276 277 277 278 278 278 277 277 276 277 276 276 275 274 274 273 272 271 269 268 267 266 264 263 261 260 260 260 260 260 259 259 259 258 258 256 255 254 253 253 252 251 249 248 246 245 245 244 244 245 246 245 245 244
287 286 286 285 285 285 285 285 285 284 283 282 282 281 281 281 280 280 280 281 282 282 282 281 278 276 275 275 276 276 276 276 276 276 276 276 277 277 277 276 275 275 275 275 274 273 273 273 272 271 269 267 266 264 263 262 261 260 259 259 259 259 258 258 258 258 257 256 255 253 253 252 251 250 248 246 245 244 244 243 244 244 245 244 243
287 286 286 285 285 284 284 284 284 283 282 282 282 281 281 281 280 280 280 280 281 281 281 282 281 280 278 276 276 276 276 276 276 276 276 276 276 276 276 276 276 275 274 274 274 273 272 271 271 270 270 269 267 265 263 262 261 260 258 258 257 257 257 257 257 257 256 256 255 253 252 251 251 250 248 247 245 244 243 243 243 243 244 244 243
288 287 287 286 286 285 285 284 284 283 282 282 282 281 281 281 280 281 281 281 280 280 280 280 281 281 281 280 278 277 277 277 277 277 277 277 277 276 276 277 277 276 275 274 274 273 272 271 269 269 269 269 267 265 264 263 261 260 258 257 256 256 256 256 255 255 255 255 254 253 252 251 251 250 249 248 247 245 244 243 243 243 243 244 244
288 287 287 287 286 286 286 286 284 283 282 281 281 281 281 281 281 281 281 281 280 280 280 280 280 280 281 282 282 281 280 278 278 277 277 276 276 276 276 276 277 277 276 276 275 274 273 272 270 269 268 268 267 266 264 263 262 260 258 257 256 255 254 254 254 253 253 253 254 253 252 251 250 249 248 248 247 246 245 244 244 244 244 244 243
287 286 286 286 286 286 286 286 284 283 282 282 281 282 282 282 282 282 282 281 281 281 281 281 281 280 281 282 284 284 284 283 281 279 278 276 275 275 275 274 275 276 276 276 276 275 274 273 272 270 269 267 267 266 264 263 262 260 258 257 255 254 254 253 252 252 251 251 251 251 251 251 249 248 247 246 246 245 245 244 244 244 244 244 243
286 285 286 286 286 286 286 285 284 283 283 282 282 282 283 283 283 283 282 282 282 282 282 282 282 282 282 282 283 284 285 285 283 282 280 279 278 277 275 274 274 274 274 274 274 274 274 273 273 271 270 268 267 266 264 263 262 260 259 257 255 254 253 253 252 251 251 250 249 249 249 249 248 248 246 245 245 245 244 244 243 244 244 244 243
285 285 285 285 285 285 285 284 283 283 283 283 283 283 283 283 283 283 283 283 283 282 282 282 282 283 283 283 283 283 284 284 284 284 283 282 281 280 279 278 277 275 274 273 272 272 272 272 271 271 270 268 267 265 264 263 262 260 259 257 255 254 253 253 252 251 251 250 250 249 248 247 247 247 246 245 244 244 244 244 243 243 243 243 243
285 285 285 285 285 284 284 283 282 283 283 284 284 284 283 283 283 283 283 283 283 283 283 282 282 282 283 283 283 283 283 283 283 283 283 283 283 282 281 281 280 279 277 275 274 273 272 272 271 270 269 268 267 265 264 263 262 260 259 257 255 254 253 252 252 251 251 250 250 250 249 248 248 247 246 245 244 243 243 243 243 243 243 243 242
284 284 284 284 284 283 282 282 283 283 284 284 284 284 284 283 283 282 282 282 282 282 282 282 282 282 282 282 282 282 282 282 281 281 281 282 283 282 282 282 281 280 279 278 276 274 273 272 271 270 269 267 266 265 263 262 261 260 259 257 255 254 252 251 251 250 250 250 250 250 250 249 249 248 247 246 244 243 243 243 242 242 242 242 242
284 284 284 283 283 282 282 282 283 283 284 283 283 284 283 283 283 282 282 282 282 282 282 283 283 283 283 282 282 282 281 281 280 281 281 281 281 282 282 282 281 280 280 279 277 275 274 273 272 270 269 267 266 264 263 262 260 259 259 257 256 254 253 252 251 251 250 250 250 250 250 249 249 249 249 247 245 244 243 242 242 241 241 241 241
284 284 283 283 282 282 282 283 283 283 283 283 283 283 283 283 282 282 282 282 282 282 282 283 283 283 284 283 283 282 281 281 281 282 282 282 281 281 281 281 281 280 279 278 278 276 275 274 273 271 269 267 266 264 263 261 259 259 258 257 256 255 253 252 252 251 251 250 250 250 249 249 249 249 249 248 247 245 244 242 242 241 240 240 239
284 284 283 283 283 283 283 283 283 283 283 283 283 283 283 282 282 282 282 282 282 282 283 283 283 283 283 283 282 282 282 283 283 283 283 283 282 282 281 281 281 280 279 278 277 276 275 274 273 271 269 267 265 264 262 261 259 258 257 257 256 255 254 252 251 251 251 250 249 249 249 248 248 248 249 248 248 247 245 243 242 241 240 239 239
284 284 284 284 284 284 284 284 283 283 283 283 283 282 282 282 282 282 282 282 282 282 282 282 283 283 282 282 282 283 283 284 284 284 283 283 282 282 282 281 281 281 280 279 278 277 275 274 272 271 269 267 265 263 262 260 259 258 257 256 256 255 254 252 251 250 250 249 248 247 247 247 246 246 247 247 247 247 246 244 243 241 240 239 239
285 285 285 285 285 285 284 284 283 283 283 283 283 282 282 282 282 282 282 282 282 282 283 283 283 282 282 282 283 283 284 284 283 283 283 282 282 282 282 282 282 281 281 280 279 277 275 273 271 270 269 267 265 263 261 259 258 257 256 255 255 254 253 252 251 250 249 249 248 247 246 246 245 245 244 244 244 244 244 243 242 241 240 239 239
285 285 285 285 285 285 285 284 284 284 284 283 283 283 283 282 282 282 282 282 283 283 283 283 282 282 282 283 283 284 284 283 283 283 283 282 282 282 282 282 282 282 280 279 278 277 275 272 271 269 268 266 265 263 261 259 258 257 256 255 254 254 253 252 251 250 249 248 247 246 245 245 244 244 243 243 242 242 241 241 240 240 239 239 239
285 286 286 285 285 285 285 285 285 285 284 284 284 283 283 283 283 283 283 283 283 284 283 283 282 282 283 283 284 284 283 282 282 282 282 282 282 283 282 282 282 281 279 278 277 276 274 272 271 269 267 266 265 264 262 260 258 256 255 254 254 253 252 251 250 249 248 247 246 245 244 244 243 243 243 243 242 241 241 240 239 239 239 239 239
286 286 286 286 286 286 286 286 285 285 285 285 284 284 283 283 283 283 283 284 284 284 283 283 283 284 284 285 285 284 283 282 281 281 281 281 282 282 281 281 280 279 277 276 276 275 274 272 271 269 268 267 266 265 263 262 260 258 256 254 253 252 252 251 250 249 248 247 246 245 243 243 243 243 242 242 241 241 240 240 239 239 239 239 239
Height
10420 10419 10418 10416 10414 10413 10412 10411 10411 10410 10411 10411 10412 10412 10414 10415 10416 10417 10418 10419 10421 10422 10423 10424 10425 10426 10426 10426 10427 10427 10428 10428 10429 10430 10431 10432 10433 10434 10436 10437 10440 10443 10445 10447 10448 10451 10456 10459 10460 10460 10461 10464 10467 10467 10467 10468 10470 10474 10476 10478 10481 10483 10486 10490 10501 10516 10518 10512 10512 10511 10509 10510 10513 10516 10518 10519 10520 10522 10524 10526 10527 10528 10532 10536 10539
10400 10399 10398 10397 10395 10394 10392 10391 10391 10391 10391 10391 10391 10391 10392 10394 10395 10396 10397 10398 10400 10402 10403 10403 10404 10405 10406 10406 10406 10407 10408 10408 10409 10410 10412 10413 10414 10414 10416 10418 10420 10422 10424 10427 10429 10431 10435 10440 10443 10443 10443 10447 10450 10450 10451 10452 10452 10456 10459 10461 10465 10466 10467 10472 10481 10494 10503 10501 10498 10498 10497 10496 10500 10503 10503 10504 10505 10505 10509 10515 10516 10516 10517 10521 10525
10379 10378 10378 10378 10377 10376 10374 10372 10371 10371 10370 10370 10370 10371 10371 10372 10373 10375 10375 10376 10377 10379 10380 10382 10382 10383 10384 10385 10385 10386 10387 10388 10389 10390 10390 10392 10393 10395 10396 10398 10401 10403 10405 10407 10409 10411 10414 10420 10423 10424 10425 10429 10433 10433 10434 10435 10435 10438 10441 10443 10447 10450 10450 10453 10462 10474 10484 10485 10484 10486 10485 10483 10485 10488 10488 10489 10490 10490 10496 10502 10502 10503 10504 10507 10510
10358 10357 10357 10357 10357 10356 10355 10354 10352 10351 10350 10349 10349 10349 10350 10351 10351 10353 10354 10354 10355 10356 10357 10359 10360 10361 10361 10362 10363 10364 10365 10366 10368 10369 10369 10370 10372 10374 10375 10377 10380 10384 10386 10388 10390 10391 10394 10399 10403 10404 10405 10409 10414 10415 10415 10416 10417 10419 10422 10424 10426 10431 10432 10435 10442 10452 10461 10468 10470 10471 10471 10470 10471 10471 10471 10473 10475 10477 10481 10484 10486 10489 10491 10492 10495
10339 10337 10337 10337 10337 10336 10335 10334 10333 10332 10330 10329 10328 10328 10328 10329 10330 10330 10331 10332 10333 10333 10334 10335 10337 10338 10339 10340 10340 10341 10342 10343 10345 10346 10347 10347 10349 10352 10354 10356 10358 10362 10366 10369 10371 10373 10375 10380 10384 10385 10386 10390 10395 10396 10395 10396 10398 10400 10403 10405 10405 10408 10412 10416 10422 10429 10438 10448 10454 10454 10455 10458 10459 10457 10456 10457 10459 10461 10464 10467 10471 10474 10476 10478 10480
10321 10319 10319 10318 10317 10316 10315 10314 10314 10313 10312 10311 10309 10309 10308 10308 10309 10309 10310 10310 10311 10311 10312 10313 10314 10315 10317 10317 10318 10318 10319 10320 10321 10322 10323 10323 10325 10328 10331 10334 10337 10340 10344 10347 10350 10353 10356 10360 10364 10365 10366 10370 10375 10377 10376 10377 10379 10382 10385 10386 10385 10387 10390 10395 10400 10406 10414 10425 10432 10434 10437 10442 10444 10443 10443 10441 10442 10445 10449 10452 10456 10460 10462 10463 10463
10304 10303 10301 10300 10298 10297 10296 10295 10294 10293 10292 10291 10290 10289 10289 10289 10289 10289 10289 10289 10290 10290 10291 10291 10292 10292 10293 10294 10295 10295 10297 10297 10297 10297 10298 10298 10300 10303 10307 10311 10314 10318 10322 10326 10329 10332 10335 10339 10343 10345 10346 10349 10353 10356 10357 10358 10360 10363 10366 10367 10367 10368 10371 10374 10377 10382 10391 10401 10409 10413 10417 10421 10424 10426 10428 10426 10426 10431 10435 10439 10442 10445 10446 10445 10444
10286 10284 10283 10282 10280 10279 10278 10276 10275 10274 10272 10271 10270 10270 10269 10269 10269 10269 10268 10268 10269 10269 10269 10269 10270 10269 10269 10270 10271 10272 10273 10275 10275 10273 10272 10273 10274 10277 10281 10286 10290 10295 10300 10304 10308 10311 10314 10317 10320 10323 10325 10326 10330 10333 10336 10337 10340 10343 10346 10347 10347 10348 10352 10355 10357 10361 10368 10377 10386 10392 10395 10399 10404 10408 10410 10410 10411 10416 10418 10418 10420 10423 10424 10425 10425
10268 10266 10265 10263 10262 10262 10260 10258 10257 10255 10254 10253 10252 10251 10251 10250 10249 10248 10247 10247 10247 10247 10247 10248 10248 10248 10248 10248 10248 10249 10251 10252 10252 10249 10248 10250 10251 10253 10258 10262 10267 10271 10276 10282 10286 10288 10291 10294 10297 10300 10302 10304 10306 10310 10313 10315 10316 10320 10325 10326 10325 10328 10332 10335 10338 10342 10347 10354 10362 10369 10373 10379 10386 10389 10391 10393 10397 10398 10395 10393 10398 10402 10403 10404 10406
10252 10250 10248 10247 10246 10245 10243 10241 10239 10237 10235 10234 10233 10232 10232 10230 10229 10229 10228 10227 10226 10226 10227 10227 10226 10226 10227 10228 10228 10229 10229 10230 10228 10225 10225 10227 10229 10232 10236 10240 10245 10249 10253 10258 10262 10265 10267 10269 10273 10276 10279 10281 10284 10286 10289 10291 10292 10296 10301 10303 10302 10305 10310 10314 10318 10322 10326 10331 10339 10345 10349 10357 10367 10370 10371 10375 10377 10375 10375 10376 10380 10381 10381 10383 10388
10237 10235 10233 10232 10231 10229 10227 10225 10222 10220 10217 10216 10215 10214 10213 10211 10210 10210 10209 10208 10207 10207 10207 10207 10206 10205 10205 10207 10209 10209 10208 10206 10203 10202 10205 10206 10207 10210 10215 10220 10223 10226 10230 10234 10239 10242 10243 10244 10246 10250 10254 10257 10260 10263 10265 10266 10268 10271 10275 10278 10279 10281 10286 10291 10297 10301 10304 10309 10318 10323 10326 10334 10344 10346 10349 10354 10355 10355 10358 10359 10358 10359 10362 10366 10371
10220 10218 10217 10215 10214 10212 10210 10208 10205 10203 10201 10199 10198 10197 10195 10194 10192 10191 10190 10189 10189 10189 10189 10188 10187 10186 10185 10187 10189 10189 10188 10184 10180 10181 10184 10184 10184 10186 10193 10200 10205 10207 10209 10212 10215 10219 10221 10221 10222 10225 10229 10232 10235 10237 10239 10242 10244 10245 10247 10251 10255 10258 10263 10268 10275 10279 10282 10285 10293 10301 10306 10314 10321 10321 10323 10329 10332 10332 10335 10337 10339 10342 10344 10347 10351
10201 10199 10198 10196 10194 10193 10191 10190 10188 10186 10184 10183 10181 10180 10178 10177 10176 10174 10174 10173 10172 10172 10171 10169 10168 10167 10166 10168 10170 10169 10167 10162 10160 10162 10164 10164 10163 10165 10171 10180 10186 10189 10191 10191 10193 10195 10198 10200 10201 10203 10206 10208 10209 10210 10212 10215 10217 10218 10220 10224 10229 10235 10240 10246 10251 10256 10259 10262 10268 10277 10285 10292 10296 10298 10299 10301 10303 10307 10312 10317 10320 10322 10322 10326 10332
10184 10182 10179 10177 10175 10174 10172 10171 10169 10167 10166 10165 10164 10162 10161 10160 10158 10157 10157 10157 10156 10155 10154 10152 10151 10150 10149 10150 10151 10150 10147 10143 10143 10146 10146 10145 10145 10146 10151 10159 10164 10168 10171 10172 10171 10173 10175 10177 10180 10184 10186 10184 10184 10184 10185 10187 10189 10191 10194 10199 10205 10212 10217 10222 10227 10233 10237 10239 10244 10254 10263 10264 10267 10274 10275 10273 10277 10284 10289 10293 10296 10297 10300 10305 10308
10169 10166 10163 10160 10159 10157 10155 10153 10151 10150 10149 10147 10146 10145 10143 10143 10141 10141 10141 10140 10139 10138 10137 10136 10135 10134 10132 10131 10132 10133 10130 10126 10127 10129 10128 10127 10128 10130 10134 10139 10143 10146 10149 10149 10149 10149 10152 10153 10155 10161 10164 10163 10161 10160 10159 10160 10163 10167 10172 10178 10185 10191 10195 10199 10205 10209 10212 10215 10219 10230 10239 10239 10239 10244 10247 10248 10254 10261 10264 10266 10270 10272 10277 10283 10286
10155 10152 10148 10146 10144 10141 10139 10137 10135 10134 10132 10131 10129 10128 10126 10126 10125 10125 10125 10124 10122 10121 10120 10119 10118 10117 10115 10112 10113 10116 10114 10110 10110 10113 10111 10110 10112 10115 10118 10121 10123 10125 10126 10125 10125 10127 10130 10131 10134 10139 10143 10145 10143 10139 10135 10136 10139 10144 10152 10158 10164 10169 10174 10180 10185 10187 10188 10190 10195 10204 10214 10217 10214 10216 10220 10223 10229 10237 10239 10241 10245 10251 10257 10263 10268
10141 10138 10135 10132 10130 10127 10125 10123 10121 10119 10117 10115 10113 10111 10110 10109 10109 10109 10110 10108 10106 10105 10104 10103 10101 10099 10098 10096 10096 10100 10099 10093 10092 10095 10094 10094 10097 10100 10102 10102 10104 10105 10107 10106 10106 10108 10110 10111 10114 10118 10123 10126 10125 10120 10116 10116 10118 10125 10132 10139 10144 10148 10154 10162 10166 10165 10166 10167 10170 10179 10189 10195 10193 10193 10197 10199 10204 10212 10216 10219 10228 10234 10236 10242 10251
10128 10125 10122 10119 10116 10113 10110 10109 10106 10104 10102 10100 10098 10096 10094 10093 10093 10093 10093 10093 10091 10089 10087 10087 10085 10082 10082 10082 10081 10083 10082 10077 10074 10077 10077 10076 10079 10083 10084 10086 10088 10089 10090 10090 10089 10091 10092 10092 10093 10097 10102 10105 10103 10100 10098 10098 10101 10107 10114 10119 10123 10129 10137 10144 10144 10142 10143 10144 10148 10155 10166 10173 10173 10173 10175 10179 10183 10189 10194 10202 10212 10214 10214 10223 10236
10113 10111 10108 10105 10102 10099 10097 10095 10093 10090 10087 10085 10083 10081 10079 10078 10077 10076 10076 10076 10076 10073 10070 10070 10070 10068 10067 10067 10066 10066 10065 10062 10059 10059 10059 10059 10061 10065 10067 10070 10072 10072 10073 10074 10073 10074 10075 10075 10074 10076 10080 10084 10083 10081 10081 10080 10083 10091 10096 10099 10103 10113 10122 10123 10117 10114 10117 10121 10129 10137 10145 10151 10153 10153 10155 10160 10164 10168 10176 10187 10193 10192 10197 10211 10219
10097 10095 10092 10090 10087 10085 10083 10081 10079 10076 10073 10070 10068 10066 10064 10063 10062 10061 10060 10059 10059 10057 10054 10053 10055 10054 10051 10051 10050 10048 10048 10048 10046 10043 10042 10043 10045 10049 10051 10053 10054 10055 10057 10057 10057 10057 10057 10057 10058 10058 10060 10063 10064 10063 10063 10063 10064 10071 10077 10080 10086 10097 10101 10095 10089 10090 10094 10101 10112 10121 10126 10131 10134 10134 10138 10144 10147 10151 10159 10170 10175 10175 10182 10193 10195
10082 10079 10077 10075 10073 10071 10069 10067 10064 10061 10059 10057 10054 10052 10050 10049 10048 10046 10045 10044 10043 10041 10039 10039 10040 10040 10036 10033 10033 10031 10030 10032 10031 10028 10027 10028 10030 10033 10035 10037 10038 10040 10041 10041 10041 10041 10040 10040 10040 10040 10042 10044 10045 10045 10046 10046 10046 10051 10058 10063 10068 10073 10074 10070 10069 10072 10075 10082 10093 10101 10108 10114 10116 10117 10122 10128 10133 10136 10141 10149 10157 10159 10164 10171 10173
10067 10064 10062 10060 10058 10056 10054 10052 10049 10047 10045 10043 10041 10038 10035 10035 10035 10033 10031 10030 10028 10026 10025 10025 10026 10026 10021 10017 10015 10015 10014 10015 10015 10013 10011 10013 10015 10017 10019 10021 10022 10025 10026 10025 10025 10025 10024 10024 10024 10024 10025 10027 10027 10027 10029 10030 10030 10035 10041 10044 10045 10047 10049 10051 10054 10056 10058 10065 10073 10080 10087 10095 10099 10102 10106 10111 10117 10121 10123 10128 10136 10140 10145 10151 10154
10052 10049 10047 10045 10043 10041 10039 10036 10034 10032 10031 10029 10027 10024 10022 10021 10021 10019 10017 10015 10014 10014 10012 10012 10012 10011 10006 10001 9998 9998 9998 9998 9998 9998 9997 9998 9999 10001 10003 10004 10006 10008 10010 10010 10009 10008 10008 10008 10008 10008 10008 10009 10010 10010 10011 10013 10015 10018 10022 10024 10025 10027 10029 10033 10037 10041 10044 10049 10055 10059 10067 10075 10081 10085 10089 10093 10098 10102 10103 10106 10114 10120 10126 10132 10134
10037 10035 10032 10031 10029 10026 10024 10021 10018 10017 10016 10015 10013 10011 10009 10008 10006 10004 10002 10001 10002 10002 10000 9999 9999 9997 9992 9987 9983 9981 9982 9982 9982 9983 9984 9985 9984 9985 9987 9988 9989 9991 9993 9994 9993 9992 9991 9992 9992 9992 9991 9991 9991 9992 9994 9996 9998 10001 10005 10007 10009 10011 10014 10017 10021 10024 10027 10032 10038 10043 10050 10056 10061 10066 10071 10074 10077 10079 10080 10085 10093 10100 10107 10113 10116
10023 10020 10018 10017 10015 10012 10010 10007 10004 10003 10002 10000 9999 9997 9995 9994 9992 9989 9988 9988 9990 9990 9987 9986 9986 9983 9979 9974 9969 9966 9966 9966 9967 9968 9970 9971 9970 9970 9972 9973 9973 9975 9977 9978 9977 9976 9976 9976 9975 9974 9973 9973 9973 9974 9976 9978 9981 9985 9989 9991 9993 9996 9999 10001 10003 10005 10009 10016 10022 10027 10033 10038 10040 10045 10050 10053 10054 10056 10060 10067 10076 10082 10088 10094 10099
10009 10006 10004 10003 10001 9999 9996 9993 9991 9990 9988 9986 9985 9984 9982 9981 9978 9976 9976 9977 9977 9976 9975 9974 9972 9970 9966 9961 9957 9954 9952 9951 9952 9954 9956 9957 9956 9956 9957 9957 9957 9959 9961 9962 9962 9961 9961 9960 9959 9957 9956 9956 9955 9956 9958 9960 9964 9969 9973 9974 9977 9981 9984 9985 9987 9988 9992 9998 10004 10009 10016 10021 10023 10025 10028 10031 10035 10041 10047 10052 10058 10064 10069 10075 10081
9996 9993 9990 9989 9987 9985 9983 9980 9978 9976 9975 9973 9971 9970 9968 9967 9965 9964 9964 9964 9963 9962 9962 9961 9959 9957 9953 9948 9944 9942 9939 9937 9939 9941 9943 9943 9943 9943 9943 9943 9943 9944 9945 9947 9948 9948 9946 9944 9942 9942 9942 9941 9939 9939 9940 9943 9946 9950 9954 9957 9960 9964 9967 9969 9972 9974 9978 9982 9987 9992 9999 10004 10006 10009 10012 10016 10021 10027 10032 10035 10039 10045 10051 10057 10061
9983 9980 9978 9977 9975 9972 9969 9967 9965 9963 9962 9960 9958 9956 9954 9953 9952 9951 9951 9951 9950 9949 9948 9948 9945 9943 9940 9935 9932 9929 9926 9925 9927 9929 9929 9929 9929 9929 9929 9929 9929 9930 9930 9931 9933 9933 9931 9929 9929 9929 9929 9927 9926 9923 9923 9926 9929 9932 9935 9938 9942 9947 9950 9953 9958 9962 9965 9967 9969 9974 9982 9987 9989 9994 9998 10001 10005 10010 10015 10017 10021 10028 10033 10036 10041
9972 9969 9967 9965 9963 9960 9957 9955 9953 9951 9949 9947 9945 9943 9940 9939 9939 9938 9936 9936 9937 9937 9936 9935 9932 9929 9926 9922 9920 9917 9914 9912 9914 9916 9916 9915 9915 9916 9915 9915 9916 9916 9915 9916 9917 9916 9914 9914 9915 9915 9915 9915 9914 9911 9909 9910 9913 9916 9919 9921 9924 9929 9934 9938 9943 9947 9950 9950 9952 9958 9965 9969 9972 9976 9980 9984 9989 9994 9996 9999 10004 10010 10014 10017 10023
9960 9957 9955 9953 9951 9948 9946 9943 9941 9939 9938 9936 9933 9930 9927 9925 9926 9926 9924 9922 9922 9923 9925 9923 9920 9917 9914 9910 9907 9905 9903 9901 9901 9902 9902 9902 9901 9901 9901 9901 9902 9902 9903 9903 9903 9901 9899 9899 9899 9899 9900 9901 9902 9901 9898 9897 9898 9902 9904 9905 9907 9912 9917 9922 9927 9930 9932 9934 9937 9941 9946 9951 9955 9959 9963 9967 9973 9976 9978 9981 9986 9991 9995 10000 10007
9949 9946 9943 9941 9939 9937 9934 9932 9930 9928 9926 9924 9922 9920 9916 9911 9909 9911 9913 9912 9909 9908 9910 9911 9909 9905 9903 9899 9896 9893 9891 9891 9891 9890 9889 9888 9887 9887 9886 9886 9887 9888 9890 9890 9889 9887 9886 9886 9884 9884 9886 9887 9888 9888 9887 9885 9885 9887 9890 9892 9893 9896 9900 9905 9910 9912 9915 9918 9922 9925 9928 9933 9939 9943 9946 9950 9955 9958 9960 9963 9968 9974 9980 9987 9992
9939 9935 9932 9930 9927 9925 9923 9921 9920 9917 9915 9913 9911 9909 9907 9902 9897 9894 9897 9900 9899 9898 9897 9898 9896 9893 9891 9889 9887 9883 9880 9880 9880 9879 9878 9876 9875 9874 9872 9871 9872 9874 9875 9876 9875 9873 9872 9872 9871 9871 9872 9874 9874 9874 9875 9874 9873 9874 9876 9878 9879 9881 9886 9889 9892 9896 9900 9903 9905 9908 9911 9915 9921 9926 9930 9934 9938 9942 9945 9948 9953 9959 9966 9972 9977
9928 9925 9922 9919 9916 9913 9911 9910 9909 9907 9904 9902 9899 9897 9896 9894 9890 9884 9880 9882 9885 9887 9887 9887 9885 9881 9878 9876 9876 9875 9873 9870 9869 9868 9867 9866 9864 9863 9861 9858 9858 9860 9861 9862 9861 9860 9860 9860 9859 9859 9859 9860 9861 9861 9861 9861 9862 9862 9864 9865 9866 9869 9872 9874 9876 9880 9885 9887 9889 9892 9896 9900 9905 9910 9915 9920 9923 9926 9930 9934 9938 9943 9950 9956 9962
9917 9914 9912 9909 9906 9903 9900 9899 9898 9896 9893 9890 9888 9886 9884 9883 9881 9877 9872 9869 9868 9870 9873 9875 9875 9873 9869 9865 9863 9864 9863 9862 9860 9859 9857 9855 9853 9851 9850 9849 9847 9846 9848 9849 9849 9847 9847 9847 9847 9847 9847 9847 9848 9848 9848 9848 9849 9850 9851 9853 9854 9856 9859 9860 9862 9866 9870 9872 9876 9880 9883 9886 9891 9896 9902 9906 9908 9911 9916 9921 9924 9928 9934 9940 9946
9905 9903 9901 9899 9896 9893 9890 9889 9888 9885 9882 9879 9877 9875 9873 9871 9869 9868 9865 9862 9859 9857 9857 9858 9860 9861 9860 9857 9854 9852 9852 9852 9851 9850 9849 9846 9843 9840 9838 9838 9837 9836 9836 9837 9837 9836 9836 9836 9834 9834 9834 9835 9836 9836 9836 9836 9837 9839 9840 9841 9842 9843 9846 9848 9850 9852 9856 9860 9864 9867 9870 9873 9877 9882 9887 9891 9893 9896 9901 9906 9909 9912 9917 9923 9929
9893 9891 9889 9887 9885 9882 9880 9879 9878 9875 9871 9868 9866 9864 9863 9861 9859 9857 9856 9854 9852 9849 9847 9845 9843 9843 9845 9846 9845 9843 9841 9841 9841 9840 9838 9837 9835 9831 9828 9826 9826 9826 9826 9826 9825 9825 9826 9826 9824 9822 9822 9823 9824 9824 9824 9824 9825 9827 9828 9829 9830 9831 9833 9835 9837 9840 9843 9846 9850 9853 9857 9861 9864 9868 9872 9876 9879 9882 9886 9890 9893 9897 9902 9908 9914
9881 9879 9877 9875 9873 9871 9869 9868 9867 9864 9861 9858 9855 9853 9852 9850 9849 9847 9846 9844 9843 9840 9839 9837 9835 9831 9829 9830 9831 9832 9832 9831 9830 9829 9828 9826 9824 9822 9820 9817 9815 9814 9815 9815 9814 9813 9814 9815 9814 9812 9812 9811 9811 9813 9813 9813 9814 9815 9817 9818 9818 9819 9821 9823 9825 9828 9831 9833 9836 9840 9844 9848 9852 9855 9859 9863 9866 9869 9872 9876 9879 9883 9889 9894 9901
9869 9867 9864 9862 9861 9859 9858 9857 9856 9853 9850 9848 9845 9843 9841 9840 9839 9838 9836 9834 9833 9831 9829 9828 9827 9824 9820 9817 9816 9817 9819 9820 9819 9818 9817 9816 9814 9812 9811 9809 9806 9805 9805 9804 9803 9802 9802 9802 9802 9802 9802 9801 9801 9801 9802 9802 9803 9804 9806 9806 9807 9808 9809 9811 9813 9816 9819 9821 9824 9827 9831 9835 9839 9842 9846 9849 9852 9856 9859 9863 9867 9871 9876 9882 9889
9858 9855 9853 9851 9849 9847 9847 9846 9843 9841 9839 9838 9835 9833 9831 9830 9829 9828 9826 9824 9823 9821 9820 9818 9817 9816 9814 9810 9806 9804 9804 9806 9807 9806 9805 9804 9804 9803 9802 9801 9799 9797 9796 9795 9793 9792 9791 9791 9791 9791 9791 9791 9791 9791 9791 9792 9792 9793 9794 9795 9796 9797 9799 9800 9801 9804 9807 9809 9812 9815 9819 9822 9825 9829 9832 9836 9839 9842 9846 9850 9854 9859 9864 9869 9876
9847 9844 9842 9841 9839 9837 9836 9834 9831 9829 9828 9827 9826 9824 9822 9820 9819 9818 9816 9814 9813 9812 9810 9809 9807 9807 9806 9804 9800 9797 9794 9793 9794 9794 9793 9792 9792 9792 9791 9791 9791 9790 9788 9787 9785 9783 9781 9782 9781 9781 9781 9781 9781 9781 9781 9781 9782 9783 9784 9785 9786 9787 9788 9789 9791 9793 9795 9797 9800 9803 9806 9809 9812 9815 9819 9823 9826 9830 9833 9838 9842 9847 9851 9857 9863
9836 9834 9832 9830 9829 9827 9826 9823 9820 9818 9817 9816 9816 9814 9813 9811 9810 9808 9806 9804 9803 9802 9801 9800 9798 9797 9796 9795 9794 9791 9787 9784 9782 9782 9782 9781 9781 9780 9780 9780 9780 9780 9779 9778 9777 9774 9773 9772 9772 9771 9771 9771 9772 9772 9772 9772 9772 9773 9774 9775 9776 9777 9778 9779 9780 9782 9785 9787 9789 9791 9794 9797 9799 9802 9807 9811 9815 9818 9822 9826 9830 9835 9840 9845 9851
9826 9823 9822 9820 9819 9817 9815 9813 9810 9808 9807 9806 9805 9804 9803 9802 9800 9799 9797 9795 9793 9792 9792 9791 9790 9788 9787 9786 9786 9784 9781 9778 9775 9772 9771 9771 9770 9770 9770 9769 9769 9769 9768 9768 9768 9766 9764 9763 9763 9762 9762 9762 9762 9762 9763 9763 9763 9763 9764 9765 9766 9767 9768 9769 9771 9772 9775 9777 9779 9781 9784 9786 9789 9792 9795 9800 9804 9807 9811 9815 9819 9824 9829 9834 9840
9815 9813 9811 9810 9809 9806 9804 9802 9801 9799 9798 9796 9795 9794 9793 9793 9791 9790 9788 9786 9785 9783 9782 9781 9781 9780 9779 9778 9777 9775 9773 9770 9767 9764 9763 9762 9761 9761 9761 9761 9760 9759 9758 9758 9758 9757 9755 9754 9754 9753 9753 9753 9753 9753 9753 9754 9754 9754 9754 9755 9757 9758 9759 9760 9761 9763 9765 9766 9769 9771 9774 9777 9779 9782 9785 9789 9793 9797 9801 9804 9808 9813 9818 9823 9828
9805 9803 9801 9800 9798 9796 9794 9793 9791 9790 9789 9787 9786 9785 9784 9783 9782 9781 9779 9778 9776 9775 9774 9772 9771 9771 9770 9769 9768 9767 9765 9762 9759 9756 9755 9755 9753 9752 9751 9752 9752 9751 9749 9749 9749 9748 9746 9745 9745 9745 9744 9744 9744 9744 9744 9745 9745 9745 9745 9746 9747 9749 9750 9751 9752 9754 9756 9758 9760 9762 9765 9768 9771 9773 9776 9779 9783 9787 9790 9794 9798 9803 9808 9812 9817
9795 9793 9791 9789 9788 9786 9785 9784 9783 9781 9780 9778 9777 9776 9775 9774 9773 9771 9770 9769 9768 9766 9765 9764 9762 9761 9760 9760 9758 9757 9755 9753 9751 9749 9747 9746 9745 9744 9743 9743 9743 9742 9741 9740 9740 9739 9738 9736 9736 9736 9736 9735 9735 9735 9735 9736 9736 9736 9737 9737 9739 9740 9742 9743 9744 9746 9748 9750 9752 9754 9757 9760 9763 9765 9767 9770 9774 9777 9781 9784 9788 9793 9797 9801 9805
9785 9783 9781 9780 9779 9777 9776 9775 9774 9773 9771 9770 9769 9767 9766 9765 9764 9762 9761 9760 9759 9758 9757 9756 9754 9753 9752 9750 9749 9748 9746 9744 9742 9740 9738 9737 9737 9736 9735 9734 9734 9734 9733 9732 9732 9731 9730 9729 9728 9727 9727 9727 9727 9727 9727 9727 9727 9728 9728 9729 9730 9732 9733 9735 9736 9737 9739 9741 9744 9746 9748 9751 9754 9756 9759 9762 9765 9768 9772 9775 9779 9783 9787 9791 9795
9775 9773 9772 9771 9770 9768 9767 9766 9765 9764 9763 9762 9760 9759 9758 9756 9755 9754 9753 9752 9751 9750 9749 9748 9746 9745 9743 9742 9740 9739 9738 9736 9734 9732 9730 9728 9728 9727 9727 9726 9726 9725 9725 9724 9724 9723 9722 9721 9720 9719 9719 9719 9719 9718 9718 9718 9719 9719 9720 9721 9722 9723 9725 9726 9727 9729 9730 9732 9734 9737 9739 9742 9744 9747 9750 9753 9756 9759 9763 9766 9770 9774 9777 9781 9784
9765 9764 9763 9762 9761 9760 9759 9757 9756 9755 9754 9753 9752 9750 9749 9748 9746 9745 9744 9743 9743 9742 9741 9740 9738 9737 9735 9733 9732 9731 9730 9728 9726 9724 9721 9720 9720 9719 9719 9718 9718 9717 9717 9716 9715 9715 9715 9713 9712 9712 9711 9710 9710 9710 9710 9710 9711 9711 9712 9713 9714 9715 9716 9718 9719 9721 9722 9724 9726 9728 9731 9733 9735 9738 9740 9743 9746 9750 9753 9756 9760 9763 9767 9770 9773
9756 9755 9754 9753 9752 9751 9750 9749 9748 9747 9746 9744 9743 9742 9740 9739 9738 9737 9736 9735 9734 9733 9732 9731 9730 9728 9727 9726 9725 9724 9722 9721 9718 9716 9714 9712 9711 9711 9711 9710 9710 9710 9709 9708 9707 9707 9707 9706 9705 9704 9703 9702 9702 9702 9702 9702 9703 9703 9704 9705 9706 9707 9708 9709 9711 9713 9714 9716 9718 9720 9722 9725 9727 9729 9731 9734 9737 9739 9742 9746 9749 9753 9756 9760 9763
9748 9747 9746 9745 9744 9743 9742 9741 9740 9738 9737 9736 9735 9733 9732 9731 9730 9729 9728 9727 9726 9725 9724 9723 9721 9720 9719 9718 9717 9716 9715 9713 9711 9708 9706 9705 9704 9704 9703 9703 9702 9702 9702 9701 9700 9700 9699 9699 9698 9697 9696 9695 9695 9694 9695 9695 9695 9696 9697 9697 9698 9699 9700 9701 9703 9705 9706 9708 9709 9712 9714 9716 9718 9721 9723 9726 9728 9731 9734 9737 9740 9743 9747 9750 9753
9740 9739 9737 9736 9736 9735 9734 9733 9732 9730 9729 9728 9727 9725 9724 9723 9722 9721 9720 9719 9718 9717 9715 9714 9713 9712 9711 9710 9709 9708 9707 9705 9703 9701 9699 9698 9697 9697 9696 9696 9695 9695 9694 9694 9693 9692 9692 9692 9691 9690 9689 9689 9688 9687 9688 9688 9688 9689 9689 9690 9691 9692 9693 9694 9696 9697 9699 9700 9702 9704 9706 9708 9711 9713 9715 9718 9720 9723 9726 9729 9732 9735 9738 9741 9745